Muncie, IN

10:21 PM EST on February 21, 2018 (GMT -0500)
Delaware County-Johnson

Weather History for KMIE - January, 2014

Change the Weather History Date:

Sunday, January 12, 2014

  Actual Average Record
Temperature  
Mean Temperature 37 °F 26 °F  
Max Temperature 43 °F 34 °F 64 °F (2017)
Min Temperature 30 °F 19 °F -7 °F (1974)
Degree Days  
Heating Degree Days 28 39  
Month to date heating degree days 447 459  
Since 1 July heating degree days 2787 2657  
Cooling Degree Days 0 0  
Month to date cooling degree days 0 0  
Year to date cooling degree days 0 0  
Moisture  
Dew Point 28 °F    
Average Humidity 76    
Maximum Humidity 92    
Minimum Humidity 60    
Precipitation  
Precipitation 0.00 in 0.07 in 1.32 in (2017)
Month to date precipitation 0.39 0.92  
Year to date precipitation 0.39 0.92  
Sea Level Pressure  
Sea Level Pressure 29.90 in    
Wind  
Wind Speed 13 mph (SW)    
Max Wind Speed 23 mph    
Max Gust Speed 34 mph    
Visibility 9 miles    
Events      
T = Trace of Precipitation, MM = Missing Value Source: NWS Daily Summary

Daily Weather History Graph

Daily Weather History Graph

Search for Another Location

Airport or City:

Trip Planner

Search our weather history database for the weather conditions in past years. The results will help you decide how hot, cold, wet, or windy it might be!

Date:

Astronomy

Jan. 12, 2014 Rise Set
Actual Time 8:03 AM EST 5:37 PM EST
Civil Twilight 7:33 AM EST 6:07 PM EST
Nautical Twilight 6:59 AM EST 6:40 PM EST
Astronomical Twilight 6:26 AM EST 7:13 PM EST
Moon 3:04 PM EST (1/12) 5:01 AM EST (1/12)
Length of Visible Light 10h 33m
Length of Day
9h 33m
Waxing Gibbous, 89% of the Moon is Illuminated
Jan 12
Waxing Gibbous
Jan 15
Full
Jan 24
Last Quarter
Jan 30
New
Feb 6
First Quarter

Hourly Weather History & Observations

Time (EST) Temp. Windchill Dew Point Humidity Pressure Visibility Wind Dir Wind Speed Gust Speed Precip Events Conditions
12:53 AM 32.0 °F 21.2 °F 28.0 °F 85% 29.79 in 8.0 mi WNW 16.1 mph 21.9 mph N/A   Overcast
1:10 AM 32.0 °F 20.8 °F 28.0 °F 85% 29.79 in 7.0 mi WNW 17.3 mph 23.0 mph N/A   Overcast
1:53 AM 30.9 °F 21.7 °F 28.0 °F 89% 29.82 in 7.0 mi WNW 11.5 mph - N/A   Overcast
2:26 AM 30.9 °F 21.2 °F 26.1 °F 82% 29.81 in 10.0 mi WNW 12.7 mph - N/A   Overcast
2:53 AM 32.0 °F 23.6 °F 26.1 °F 79% 29.84 in 10.0 mi WNW 10.4 mph - N/A   Overcast
3:30 AM 32.0 °F 22.5 °F 27.0 °F 82% 29.85 in 10.0 mi WNW 12.7 mph - N/A   Overcast
3:53 AM 30.9 °F 22.2 °F 26.1 °F 82% 29.87 in 10.0 mi WNW 10.4 mph - N/A   Overcast
4:53 AM 30.9 °F 21.7 °F 26.1 °F 82% 29.89 in 10.0 mi West 11.5 mph - N/A   Overcast
5:53 AM 30.0 °F 21.7 °F 26.1 °F 85% 29.90 in 10.0 mi WNW 9.2 mph - N/A   Overcast
6:53 AM 30.0 °F 21.7 °F 26.1 °F 85% 29.93 in 10.0 mi West 9.2 mph - N/A   Overcast
7:53 AM 30.0 °F 21.7 °F 26.1 °F 85% 29.97 in 10.0 mi West 9.2 mph - N/A   Overcast
8:53 AM 30.0 °F 21.1 °F 25.0 °F 82% 29.99 in 10.0 mi WSW 10.4 mph - N/A   Overcast
9:53 AM 30.0 °F 22.4 °F 26.1 °F 85% 30.01 in 10.0 mi WSW 8.1 mph - N/A   Overcast
10:53 AM 30.9 °F 21.7 °F 26.1 °F 82% 30.03 in 9.0 mi SSW 11.5 mph - N/A   Overcast
11:53 AM 32.0 °F 23.0 °F 27.0 °F 82% 30.01 in 6.0 mi SSW 11.5 mph - N/A   Haze
12:38 PM 32.0 °F 22.5 °F 28.0 °F 85% 29.97 in 6.0 mi South 12.7 mph 20.7 mph N/A   Overcast
12:49 PM 33.8 °F 23.5 °F 28.4 °F 81% 29.95 in 6.0 mi South 16.1 mph 21.9 mph N/A   Haze
12:53 PM 33.1 °F 23.0 °F 28.0 °F 82% 29.96 in 7.0 mi South 15.0 mph - N/A   Mostly Cloudy
1:05 PM 34.0 °F 25.0 °F 28.0 °F 79% 29.94 in 7.0 mi South 12.7 mph - N/A   Scattered Clouds
1:53 PM 36.0 °F 27.5 °F 28.9 °F 76% 29.92 in 8.0 mi South 12.7 mph - N/A   Clear
2:53 PM 37.0 °F 27.7 °F 30.0 °F 76% 29.92 in 10.0 mi SSW 16.1 mph - N/A   Clear
3:53 PM 39.0 °F 31.8 °F 30.9 °F 73% 29.91 in 10.0 mi South 11.5 mph 19.6 mph N/A   Clear
4:53 PM 39.9 °F 32.5 °F 30.9 °F 70% 29.90 in 10.0 mi South 12.7 mph - N/A   Clear
5:53 PM 39.9 °F 32.1 °F 30.9 °F 70% 29.89 in 10.0 mi South 13.8 mph - N/A   Clear
6:53 PM 41.0 °F 32.8 °F 30.0 °F 65% 29.89 in 10.0 mi South 16.1 mph - N/A   Clear
7:53 PM 41.0 °F 31.6 °F 28.9 °F 62% 29.86 in 10.0 mi South 20.7 mph 26.5 mph N/A   Clear
8:53 PM 41.0 °F 31.9 °F 30.0 °F 65% 29.82 in 10.0 mi South 19.6 mph 28.8 mph N/A   Clear
9:53 PM 42.1 °F 33.3 °F 30.0 °F 62% 29.81 in 10.0 mi South 19.6 mph 32.2 mph N/A   Clear
10:53 PM 42.1 °F - 30.9 °F 65% 29.81 in 10.0 mi North - - N/A   Clear
11:53 PM 42.1 °F 33.9 °F 30.9 °F 65% 29.81 in 10.0 mi SSW 17.3 mph 24.2 mph N/A   Clear